Location: Cambroso
(45.2833°N, 12.0850°E)
Time: 15:41:45
(UTC+00:00)

COSMO-SKYMED 1 - Pass Details

Date: 21 January 2021
Orbit: 621 x 623 km, 97.9° (Epoch: 26 February)

Event Time Altitude Azimuth Distance (km) Brightness Sun altitude
Rises 16:37:51 0° 22° (NNE) 2,914 5.6 -6.3°
Reaches altitude 10° 16:40:17 10° 34° (NNE) 2,002 4.7 -6.7°
Maximum altitude 16:44:08 30° 96° (E) 1,115 3.4 -7.4°
Drops below altitude 10° 16:47:58 10° 158° (SSE) 1,986 5.2 -8.0°
Sets 16:50:21 0° 169° (S) 2,887 6.1 -8.4°
